Regional Weather Roundup
Issued by NWS Grand Forks, ND

Home | Current Version | Previous Version | Text Only | Print | Product List | Glossary On
Versions: 1 2 3 4 5 6 7 8 9 10 11 12 13 14 15 16 17 18 19 20 21 22 23 24 25 26 27 28 29 30 31 32 33 34 35 36 37 38 39 40 41 42 43 44 45 46 47 48 49 50
000
ASUS43 KFGF 280031
RWRFGF
PRAIRIE TO PINES  WEATHER ROUNDUP
NATIONAL WEATHER SERVICE EASTERN NORTH DAKOTA/GRAND FORKS ND
600 PM CST SAT DEC 27 2014

 **SATELLITE DATA USED TO AUGMENT SKY COVER AT AUTOMATED STATIONS**
 *****  WEATHER ACROSS EASTERN NORTH DAKOTA  *****

CITY           SKY/WX    TMP DP  RH WIND       PRES   REMARKS
GRAND FORKS    LGT SNOW  20  16  84 CALM      30.03S FOG
6HR MIN TEMP:  13; 6HR MAX TEMP:  21; 6HR PCP:  0.01;

GRAND FRKS AFB CLOUDY    19  19 100 CALM      30.03S
GRAND FRKS NWS   N/A     18 N/A N/A MISG        N/A
DEVILS LAKE    CLOUDY    19  16  86 NW3       29.97S
6HR MIN TEMP:  19; 6HR MAX TEMP:  21;

FARGO          CLOUDY    23  17  78 W5        30.03S WCI  17
WAHPETON ARPT  CLOUDY    21  18  86 SW5       30.06S WCI  15
$$

 ***** WEATHER ACROSS CENTRAL AND WESTERN NORTH DAKOTA  *****

CITY           SKY/WX    TMP DP  RH WIND       PRES   REMARKS
BISMARCK       CLEAR     22  16  78 W7        30.02R WCI  13
6HR MIN TEMP:  22; 6HR MAX TEMP:  30;

MINOT          CLOUDY    21  14  74 NW7       29.99R WCI  12
6HR MIN TEMP:  20; 6HR MAX TEMP:  25; 6HR PCP: TRACE;

JAMESTOWN      CLOUDY    23  19  85 SW3       29.98S
6HR MIN TEMP:  21; 6HR MAX TEMP:  24; 6HR PCP: TRACE;

MINOT AFB      CLOUDY    21  18  91 NW13      30.00R WCI   8
GARRISON         N/A     17  13  84 NW7       29.98R WCI   8
WILLISTON      CLOUDY    24  17  74 NE5       30.00R WCI  18
6HR MIN TEMP:  21; 6HR MAX TEMP:  26;

DICKINSON      CLOUDY    20  13  74 W9        29.96S WCI   9
6HR MIN TEMP:  17; 6HR MAX TEMP:  28;

HETTINGER      CLOUDY    21  14  74 W6        30.01R WCI  13
6HR MIN TEMP:  21; 6HR MAX TEMP:  30;

$$

 *****  OTHER AIRPORT OBSERVATIONS IN OUR AREA  *****

CITY           SKY/WX    TMP DP  RH WIND       PRES   REMARKS
WALHALLA       FLURRIES   9   9 100 N12       30.07S WCI  -6
GRAFTON AIRPOR NOT AVBL
VALLEY CITY AR LGT SNOW  23  23 100 SW5       30.00S WCI  17
CANDO          CLOUDY    19  16  86 NW5       29.99R WCI  13
CAVALIER APRT  LGT SNOW  10   7  85 N10       30.07R WCI  -3
GWINNER        CLOUDY    27  21  80 SW10      30.04S WCI  17
SHEYENNE NWR     N/A     22  18  83 SW6       29.95  WCI  14
ROLLA          LGT SNOW  10  10 100 N16       29.99S WCI  -7
 ***** THE ABOVE OBSERVATIONS ARE NON NWS ARE NOT QUALITY
       CONTROLLED AND MAY MIS-REPORT RAIN FOR SNOW...
$$

  *****  WEATHER ACROSS NORTHERN MINNESOTA  *****

CITY           SKY/WX    TMP DP  RH WIND       PRES   REMARKS
FLAG ISLAND    CLOUDY    10   5  79 NW17      29.99R WCI  -7
WARROAD        FLURRIES  12   9  85 W8        30.00R WCI   1
ROSEAU         CLOUDY    14   9  79 NW7       30.01R WCI   4
HALLOCK        FLURRIES  12   9  85 N9        30.05S WCI   0
THF RVR FALLS  CLOUDY    16  12  86 W5        30.02R WCI   9
6HR MIN TEMP:  10; 6HR MAX TEMP:  16;

BAUDETTE       CLOUDY    13   9  84 CALM      29.97S
6HR MIN TEMP:  11; 6HR MAX TEMP:  14; 6HR PCP: TRACE;

WASKISH        CLOUDY    16  12  86 CALM      29.99R
CROOKSTON      LGT SNOW  18  16  93 CALM      30.04S
STEPHEN NDAWN    N/A     16  14  93 NW2         N/A
GREENBUSH NDAW   N/A     14  12  92 NW5         N/A  WCI   6
$$
  *****  WEATHER ACROSS CENTRAL AND WEST MINNESOTA  *****

CITY           SKY/WX    TMP DP  RH WIND       PRES   REMARKS
FOSSTON        MOCLDY    14  12  92 SW7       30.00S WCI   4
BEMIDJI        CLOUDY    16  11  83 SW6       29.99S WCI   7
PARK RAPIDS    CLOUDY    19  12  74 W9        30.00S WCI   8
6HR MIN TEMP:  17; 6HR MAX TEMP:  21; 6HR PCP: TRACE;

ELBOW LAKE     FAIR      19  16  88 W7        30.04S WCI  10
6HR MIN TEMP:  15; 6HR MAX TEMP:  24;

WADENA         CLOUDY    18  14  86 W5        30.02S WCI  11
DETROIT LAKES  CLOUDY    21  18  86 SW5       30.02S WCI  15
MOORHEAD       MOCLDY    25  21  86 W3        30.04S
FERGUS FALLS   CLOUDY    21  16  79 W6        30.08S WCI  14
MORRIS MN      CLEAR     18  16  93 SW7       30.06S WCI   8
STAPLES        CLOUDY    18  12  79 CALM      30.02S
$$
  *****  WEATHER ELSEWHERE ACROSS MINNESOTA  *****

CITY           SKY/WX    TMP DP  RH WIND       PRES   REMARKS
DULUTH         MOCLDY    20   7  57 W8        29.96R WCI  10
6HR MIN TEMP:  18; 6HR MAX TEMP:  23;

INTRNTL FALLS  CLOUDY    12   5  73 SW8       29.96S WCI   0
6HR MIN TEMP:  12; 6HR MAX TEMP:  16;

ELY            CLOUDY    16   9  73 CALM      29.93S
CLOQUET        PTCLDY    19   3  49 SW5       29.98R WCI  13
WHEATON        PTCLDY    18  14  86 S5        30.08S WCI  11
BRAINERD       CLOUDY    22   7  52 W6        30.02R WCI  14
6HR MIN TEMP:  19; 6HR MAX TEMP:  23;

HIBBING        CLOUDY    20   5  52 W5        29.96S WCI  13
6HR MIN TEMP:  18; 6HR MAX TEMP:  22;

ALEXANDRIA     PTCLDY    16  11  80 SW9       30.04S WCI   4
6HR MIN TEMP:  16; 6HR MAX TEMP:  21;

SAINT CLOUD    CLOUDY    22  11  62 SW8       30.07R WCI  12
6HR MIN TEMP:  19; 6HR MAX TEMP:  26;

MINNEAPOLIS    CLEAR     14   7  73 SW8       30.12R WCI   3
6HR MIN TEMP:  14; 6HR MAX TEMP:  25;

$$

  *****  WEATHER ACROSS SOUTH DAKOTA  *****

CITY           SKY/WX    TMP DP  RH WIND       PRES   REMARKS
SIOUX FALLS    CLEAR     13   9  84 SW7       30.15S WCI   3
6HR MIN TEMP:  12; 6HR MAX TEMP:  16;

BROOKINGS      NOT AVBL
WATERTOWN      CLEAR      8   4  83 SW9       30.07R WCI  -5
6HR MIN TEMP:   8; 6HR MAX TEMP:  18;

HURON          CLEAR     15   9  76 SW9       30.12S WCI   3
6HR MIN TEMP:  12; 6HR MAX TEMP:  20;

SISSETON         N/A     22  16  78 W18       30.04F WCI   7
ABERDEEN       PTCLDY    21  15  78 SW8       30.07S WCI  11
6HR MIN TEMP:  16; 6HR MAX TEMP:  28;

MITCHELL       CLEAR     16  11  80 S8        30.15S WCI   5
PIERRE         PTCLDY    21  16  81 SW10      30.07R WCI  10
6HR MIN TEMP:  16; 6HR MAX TEMP:  26;

MOBRIDGE       MOCLDY    27  18  69 SW6       30.00S WCI  20
RAPID CITY     MOCLDY    20  14  77 W6        30.04R WCI  12
6HR MIN TEMP:  17; 6HR MAX TEMP:  23;

$$

  *****  SOME WEATHER IN NEARBY STATES *****

CITY           SKY/WX    TMP DP  RH WIND       PRES   REMARKS
GLASGOW MT     CLOUDY    30  17  58 SW3       29.95S
6HR MIN TEMP:  22; 6HR MAX TEMP:  31;

GREAT FALLS MT CLOUDY    28  19  69 SW18      29.89F WCI  15
6HR MIN TEMP:  26; 6HR MAX TEMP:  29;

CHEYENNE WY    MOCLDY    14   2  58 SW9       30.02R WCI   2
6HR MIN TEMP:  14; 6HR MAX TEMP:  20;

SCOTTSBLUFF NE PTCLDY    18  10  71 W7        30.09R WCI   9
6HR MIN TEMP:  12; 6HR MAX TEMP:  21;

OMAHA NE       CLEAR     22  14  71 NW7       30.26R WCI  13
6HR MIN TEMP:  21; 6HR MAX TEMP:  27;

DES MOINES IA  PTCLDY    25  19  78 NW9       30.22R WCI  15
6HR MIN TEMP:  25; 6HR MAX TEMP:  30;

DAVENPORT IA   CLOUDY    30  24  78 W18       30.17R WCI  18
6HR MIN TEMP:  30; 6HR MAX TEMP:  33;

CHICAGO IL     CLOUDY    34  26  72 W13       30.07R WCI  25
6HR MIN TEMP:  34; 6HR MAX TEMP:  39; 6HR PCP: TRACE;

EAU CLAIRE WI  CLEAR     16  12  84 SW5       30.08R WCI   9
6HR MIN TEMP:  16; 6HR MAX TEMP:  27;

LA CROSSE WI   CLOUDY    25  18  74 W12       30.13R WCI  14
6HR MIN TEMP:  25; 6HR MAX TEMP:  31;

$$

  *****  SOME NATIONAL WEATHER *****

CITY           SKY/WX    TMP DP  RH WIND       PRES   REMARKS
LA GUARDIA NY  MOCLDY    47  37  68 S8        30.17S
6HR MIN TEMP:  47; 6HR MAX TEMP:  55;

RALEIGH NC     MOCLDY    53  38  56 S3        30.24R
6HR MIN TEMP:  52; 6HR MAX TEMP:  62;

ATLANTA GA     LGT RAIN  55  47  74 S7        30.23R
6HR MIN TEMP:  54; 6HR MAX TEMP:  61; 6HR PCP: TRACE;

NEW ORLEANS LA CLOUDY    70  68  93 S8        30.07R FOG
6HR MIN TEMP:  69; 6HR MAX TEMP:  71; 6HR PCP:  0.04;

OKLAHOMA CITY  PTCLDY    32  19  58 N7        30.28R
6HR MIN TEMP:  32; 6HR MAX TEMP:  37;

ALBUQUERQUE NM PTCLDY    35   7  31 NW12      30.21R
6HR MIN TEMP:  31; 6HR MAX TEMP:  37;

SALT LAKE CITY CLOUDY    26  14  60 S7        30.32S WCI  18
6HR MIN TEMP:  24; 6HR MAX TEMP:  28;




USA.gov is the U.S. government's official web portal to all federal, state and local government web resources and services.